�N����,����,�~����,�C��,���x,�C��,����,���ϕ���,�ő�u�ԕ���,�ő厞����,���˗�,�I�_���x,�n�����x,�ő啗���N��,DTYPE
"22/09/27","00:10",0.0,21.3,80.7,1010.0,330.6,2.0,3.7,357.9,0.00,17.9,23.7,"00:03:28",1
"22/09/27","00:20",0.0,21.3,80.6,1010.0,326.4,1.8,3.4,317.3,0.00,17.9,23.4,"00:19:44",1
"22/09/27","00:30",0.0,21.3,80.5,1009.7,333.7,2.0,4.0,340.9,0.00,17.9,23.6,"00:21:52",1
"22/09/27","00:40",0.0,21.1,80.9,1010.0,325.4,1.6,2.5,333.0,0.00,17.7,23.5,"00:30:24",1
"22/09/27","00:50",0.0,20.9,81.4,1010.0,314.7,1.8,3.2,308.9,0.00,17.6,23.4,"00:47:12",1
"22/09/27","01:00",0.0,21.0,81.6,1009.7,322.6,2.0,3.7,334.0,0.00,17.8,23.5,"00:50:56",1
"22/09/27","01:10",0.0,20.9,81.9,1009.7,332.0,2.1,3.9,331.1,0.00,17.7,23.3,"01:03:12",1
"22/09/27","01:20",0.0,20.9,82.3,1009.5,321.1,2.0,2.8,325.6,0.00,17.8,23.3,"01:15:44",1
"22/09/27","01:30",0.0,20.9,82.6,1009.5,330.8,2.3,4.0,308.5,0.00,17.9,23.2,"01:26:48",1
"22/09/27","01:40",0.0,20.8,82.7,1010.0,321.8,1.7,3.2,315.7,0.00,17.8,23.4,"01:33:36",1
"22/09/27","01:50",0.0,20.8,82.9,1010.0,335.1,1.8,3.4,332.8,0.00,17.8,23.3,"01:46:40",1
"22/09/27","02:00",0.0,20.7,83.0,1009.3,324.6,2.6,3.6,310.7,0.00,17.8,23.1,"01:58:40",1
"22/09/27","02:10",0.0,20.9,82.7,1010.0,334.5,2.2,4.1,341.4,0.00,17.9,23.2,"02:01:52",1
"22/09/27","02:20",0.0,20.8,82.6,1009.5,337.8,2.0,3.5,331.7,0.00,17.8,23.2,"02:12:32",1
"22/09/27","02:30",0.0,20.8,82.7,1009.7,337.7,2.1,3.3,343.4,0.00,17.8,23.2,"02:20:16",1
"22/09/27","02:40",0.0,20.6,83.2,1009.7,333.3,2.0,3.1,329.8,0.00,17.7,23.2,"02:32:08",1
"22/09/27","02:50",0.0,20.6,83.7,1009.7,322.3,2.0,3.2,294.2,0.00,17.8,23.3,"02:48:00",1
"22/09/27","03:00",0.0,20.7,83.9,1009.7,314.4,2.3,3.4,321.7,0.00,17.9,23.2,"02:51:52",1
"22/09/27","03:10",0.0,20.8,83.8,1009.5,322.1,2.5,3.7,332.6,0.00,18.0,23.1,"03:02:00",1
"22/09/27","03:20",0.0,20.8,83.6,1009.5,330.8,2.1,3.5,340.7,0.00,18.0,23.1,"03:11:28",1
"22/09/27","03:30",0.0,20.8,83.6,1009.3,325.8,2.3,4.2,343.0,0.00,18.0,23.0,"03:24:32",1
"22/09/27","03:40",0.0,20.7,83.7,1009.0,330.2,2.2,3.4,315.4,0.00,17.9,23.2,"03:30:40",1
"22/09/27","03:50",0.0,20.7,83.9,1009.3,330.2,1.8,3.3,331.8,0.00,17.9,23.3,"03:47:52",1
"22/09/27","04:00",0.0,20.6,84.1,1009.3,335.2,2.3,4.2,329.1,0.00,17.9,23.0,"03:56:48",1
"22/09/27","04:10",0.0,20.6,84.2,1009.3,333.8,2.2,3.5,349.8,0.00,17.9,23.0,"04:03:20",1
"22/09/27","04:20",0.0,20.6,84.3,1009.3,330.9,2.5,5.6,333.5,0.00,17.9,23.1,"04:14:16",1
"22/09/27","04:30",0.0,20.6,84.4,1009.5,330.5,2.2,4.1,335.7,0.00,17.9,23.1,"04:26:48",1
"22/09/27","04:40",0.0,20.5,84.5,1009.5,314.5,1.6,3.2,339.0,0.00,17.8,23.0,"04:31:44",1
"22/09/27","04:50",0.0,20.4,84.7,1009.3,306.4,1.2,1.7,324.1,0.00,17.8,22.9,"04:47:28",1
"22/09/27","05:00",0.0,20.3,85.0,1009.7,326.2,1.3,1.8,334.7,0.00,17.7,22.9,"04:52:48",1
"22/09/27","05:10",0.0,20.3,85.3,1009.5,320.0,1.5,2.2,328.6,0.00,17.8,23.0,"05:05:28",1
"22/09/27","05:20",0.0,20.2,85.9,1009.7,295.9,1.2,2.2,309.6,0.00,17.8,22.9,"05:17:12",1
"22/09/27","05:30",0.0,20.0,86.5,1009.7,304.2,1.5,2.5,314.8,0.00,17.7,22.7,"05:26:16",1
"22/09/27","05:40",0.0,20.0,86.9,1009.5,317.1,2.2,3.3,334.4,0.00,17.8,22.9,"05:35:44",1
"22/09/27","05:50",0.0,20.0,87.1,1009.7,321.9,2.1,3.7,323.8,0.00,17.8,22.9,"05:43:36",1
"22/09/27","06:00",0.0,20.0,87.2,1009.7,317.2,1.8,3.3,312.5,0.00,17.8,22.9,"05:52:40",1
"22/09/27","06:10",0.0,20.1,87.2,1009.7,329.0,1.8,2.5,342.0,0.00,17.9,22.9,"06:07:20",1
"22/09/27","06:20",0.0,20.0,87.1,1009.5,335.4,2.2,4.5,347.8,0.00,17.8,22.7,"06:15:12",1
"22/09/27","06:30",0.0,20.2,86.6,1009.7,338.6,2.3,4.0,348.0,0.00,17.9,22.7,"06:26:56",1
"22/09/27","06:40",0.0,20.2,86.4,1009.7,331.7,2.2,3.5,338.5,0.00,17.9,22.6,"06:30:16",1
"22/09/27","06:50",0.0,20.3,86.3,1010.0,328.1,2.3,4.4,320.7,0.00,18.0,22.6,"06:44:56",1
"22/09/27","07:00",0.0,20.4,86.1,1009.7,327.8,2.3,3.6,336.8,0.00,18.0,22.6,"06:50:24",1
"22/09/27","07:10",0.0,20.3,85.9,1009.7,326.2,2.0,2.7,333.1,0.00,17.9,22.7,"07:06:00",1
"22/09/27","07:20",0.0,20.2,85.8,1010.4,325.5,2.2,3.4,345.9,0.00,17.8,22.7,"07:15:12",1
"22/09/27","07:30",0.0,20.2,85.9,1010.0,330.2,2.2,4.0,347.1,0.00,17.8,22.6,"07:29:04",1
"22/09/27","07:40",0.0,20.1,86.3,1010.0,327.0,2.2,3.5,326.6,0.01,17.8,22.7,"07:34:32",1
"22/09/27","07:50",0.0,20.4,86.5,1009.7,323.0,2.0,3.9,333.3,0.05,18.1,22.7,"07:45:12",1
"22/09/27","08:00",0.0,20.7,86.1,1009.7,317.4,2.2,3.2,330.5,0.06,18.3,22.7,"07:52:40",1
"22/09/27","08:10",0.0,20.8,85.5,1010.0,313.7,2.0,5.1,343.7,0.05,18.3,22.4,"08:03:44",1
"22/09/27","08:20",0.0,21.0,85.0,1010.0,320.8,2.0,4.0,320.7,0.04,18.4,22.6,"08:10:24",1
"22/09/27","08:30",0.0,21.4,84.6,1009.5,329.6,1.5,2.1,336.0,0.07,18.7,22.5,"08:29:36",1
"22/09/27","08:40",0.0,22.4,83.8,1009.3,341.5,1.5,3.1,352.7,0.20,19.6,22.7,"08:34:08",1
"22/09/27","08:50",0.0,23.6,79.9,1009.3,313.5,1.5,3.1,308.0,0.26,20.0,22.7,"08:43:36",1
"22/09/27","09:00",0.0,24.8,75.2,1008.8,289.6,0.7,1.9,330.2,0.24,20.2,22.6,"08:55:36",1
"22/09/27","09:10",0.0,25.5,71.0,1009.0,278.5,0.8,2.4,318.7,0.26,19.9,22.3,"09:01:12",1
"22/09/27","09:20",0.0,25.8,67.8,1008.8,312.4,1.0,2.7,336.1,0.27,19.4,22.6,"09:19:28",1
"22/09/27","09:30",0.0,25.6,68.2,1008.3,328.4,1.7,3.4,328.7,0.29,19.3,22.7,"09:26:32",1
"22/09/27","09:40",0.0,25.9,68.2,1008.1,260.1,1.0,2.8,241.3,0.29,19.6,22.6,"09:38:16",1
"22/09/27","09:50",0.0,25.9,67.6,1008.1,229.1,1.2,2.8,228.6,0.29,19.5,22.8,"09:40:32",1
"22/09/27","10:00",0.0,26.4,67.3,1007.1,246.5,0.7,1.6,335.9,0.34,19.9,22.7,"09:59:36",1
"22/09/27","10:10",0.0,27.1,63.9,1007.6,329.3,0.7,2.0,322.5,0.38,19.7,22.7,"10:00:56",1
"22/09/27","10:20",0.0,27.7,61.5,1007.6,299.6,0.5,1.6,325.0,0.32,19.7,22.9,"10:17:12",1
"22/09/27","10:30",0.0,28.1,62.5,1007.8,228.0,0.5,1.6,195.2,0.36,20.3,23.0,"10:23:20",1
"22/09/27","10:40",0.0,27.8,60.7,1007.8,210.7,1.2,2.8,235.7,0.36,19.6,23.0,"10:32:40",1
"22/09/27","10:50",0.0,28.6,60.9,1007.8,241.6,0.6,1.8,239.0,0.45,20.4,23.2,"10:41:04",1
"22/09/27","11:00",0.0,28.6,57.0,1008.3,194.6,1.3,4.9,229.2,0.40,19.3,23.0,"10:54:16",1
"22/09/27","11:10",0.0,27.8,59.1,1007.8,223.9,2.0,4.7,234.4,0.29,19.1,23.3,"11:03:12",1
"22/09/27","11:20",0.0,28.3,60.3,1007.4,249.6,0.6,2.7,353.7,0.31,19.9,23.3,"11:16:32",1
"22/09/27","11:30",0.0,28.7,59.8,1007.6,159.3,0.8,2.9,236.3,0.35,20.2,23.2,"11:20:32",1
"22/09/27","11:40",0.0,28.8,60.1,1007.4,242.3,1.1,2.4,229.2,0.34,20.3,23.4,"11:31:12",1
"22/09/27","11:50",0.0,29.3,58.3,1007.6,222.9,1.2,3.2,228.8,0.54,20.3,23.5,"11:49:04",1
"22/09/27","12:00",0.0,30.1,57.4,1007.8,216.0,1.0,2.9,245.6,0.56,20.8,23.6,"11:51:28",1
"22/09/27","12:10",0.0,30.2,55.8,1007.6,218.6,1.3,3.7,233.5,0.48,20.4,23.6,"12:01:44",1
"22/09/27","12:20",0.0,30.2,56.0,1007.8,205.5,1.7,4.1,220.4,0.56,20.5,23.7,"12:11:44",1
"22/09/27","12:30",0.0,30.2,56.1,1007.8,217.5,1.7,4.4,224.6,0.60,20.5,23.6,"12:25:36",1
"22/09/27","12:40",0.0,30.3,55.8,1007.6,189.2,1.5,3.6,220.4,0.43,20.5,23.7,"12:36:16",1
"22/09/27","12:50",0.0,29.7,56.9,1007.1,207.4,0.8,3.1,192.4,0.19,20.3,23.9,"12:41:28",1
"22/09/27","13:00",0.0,29.1,59.2,1007.1,202.2,1.0,2.6,225.5,0.14,20.4,24.0,"12:51:20",1
"22/09/27","13:10",0.0,28.6,59.9,1006.7,173.1,1.0,2.5,199.8,0.13,20.1,23.7,"13:06:28",1
"22/09/27","13:20",0.0,28.5,60.3,1006.0,183.4,1.0,2.6,231.5,0.13,20.1,24.0,"13:13:04",1
"22/09/27","13:30",0.0,28.5,60.8,1006.0,186.1,1.0,2.2,234.2,0.11,20.2,23.9,"13:21:44",1
"22/09/27","13:40",0.0,28.6,62.1,1005.7,349.4,0.7,1.3,341.9,0.11,20.7,24.1,"13:34:08",1
"22/09/27","13:50",0.0,28.3,63.1,1005.5,336.1,1.5,3.1,352.6,0.11,20.6,24.2,"13:45:04",1
"22/09/27","14:00",0.0,27.9,64.7,1005.0,308.3,1.2,2.2,330.5,0.10,20.7,24.0,"13:52:40",1
"22/09/27","14:10",0.0,27.6,66.6,1004.8,328.9,1.6,3.6,341.4,0.06,20.9,24.2,"14:03:20",1
"22/09/27","14:20",0.0,27.3,68.0,1004.5,313.2,1.5,3.2,342.2,0.07,20.9,24.2,"14:19:20",1
"22/09/27","14:30",0.0,27.2,68.7,1003.8,318.9,1.7,3.1,323.6,0.09,21.0,24.1,"14:29:36",1
"22/09/27","14:40",0.0,26.9,68.8,1003.8,331.9,2.5,4.4,305.9,0.08,20.7,24.2,"14:37:12",1
"22/09/27","14:50",0.0,26.7,69.4,1004.5,335.6,2.1,4.3,346.0,0.06,20.7,24.3,"14:40:16",1
"22/09/27","15:00",0.0,26.2,70.1,1004.8,334.9,2.3,5.2,345.2,0.04,20.4,24.2,"14:58:40",1
"22/09/27","15:10",0.0,25.9,71.4,1004.8,340.4,2.7,4.8,343.2,0.04,20.4,24.2,"15:03:20",1
"22/09/27","15:20",0.0,25.4,73.0,1005.2,341.8,2.8,4.9,340.3,0.01,20.2,24.3,"15:18:32",1
"22/09/27","15:30",0.0,25.0,74.1,1005.7,344.8,2.5,5.2,336.4,0.00,20.1,24.2,"15:20:02",1
"22/09/27","15:40",0.0,24.5,75.4,1006.0,350.3,3.4,5.5,20.1,0.00,19.9,24.3,"15:36:08",1
"22/09/27","15:50",0.2,23.1,79.1,1006.2,343.9,3.6,8.8,354.4,0.00,19.3,24.2,"15:44:32",1
"22/09/27","16:00",0.4,22.1,82.2,1006.7,333.0,3.4,8.1,352.2,0.00,19.0,24.1,"15:50:16",1
"22/09/27","16:10",0.4,21.5,84.4,1006.7,337.1,2.6,5.1,0.0,0.00,18.8,24.2,"16:06:32",1
"22/09/27","16:20",0.8,20.8,85.9,1006.9,344.2,2.5,5.6,0.9,0.00,18.4,24.2,"16:15:04",1
"22/09/27","16:30",0.8,20.5,87.2,1006.9,339.0,3.6,6.5,329.7,0.00,18.3,24.0,"16:23:12",1
"22/09/27","16:40",0.4,20.4,88.2,1007.1,331.9,3.1,6.6,348.0,0.00,18.4,24.0,"16:30:40",1
"22/09/27","16:50",0.8,20.4,88.8,1007.4,337.7,2.1,5.1,356.2,0.00,18.5,23.9,"16:41:52",1
"22/09/27","17:00",0.4,20.4,89.3,1007.4,293.2,0.8,2.1,350.2,0.00,18.6,24.1,"16:50:48",1
"22/09/27","17:10",0.8,20.4,89.7,1007.4,287.2,0.7,2.1,261.2,0.00,18.7,24.0,"17:05:44",1
"22/09/27","17:20",0.6,20.4,90.1,1006.9,327.7,1.1,1.9,343.6,0.00,18.8,24.0,"17:15:12",1
"22/09/27","17:30",0.4,20.2,90.4,1007.1,296.6,0.8,2.7,333.4,0.00,18.6,23.7,"17:20:40",1
"22/09/27","17:40",0.2,20.2,90.7,1007.1,217.1,0.3,1.0,188.7,0.00,18.7,23.8,"17:32:08",1
"22/09/27","17:50",0.4,20.3,91.0,1007.4,277.7,0.8,2.4,329.9,0.00,18.8,23.7,"17:47:20",1
"22/09/27","18:00",0.2,20.4,91.3,1007.4,342.6,0.8,1.4,336.9,0.00,19.0,23.6,"17:58:32",1
"22/09/27","18:10",0.2,20.3,91.6,1007.1,249.6,0.3,1.1,314.0,0.00,18.9,23.6,"18:00:16",1
"22/09/27","18:20",0.2,20.4,91.8,1007.1,320.0,0.7,1.6,341.9,0.00,19.1,23.5,"18:18:16",1
"22/09/27","18:30",0.0,20.4,92.1,1007.6,277.0,1.0,1.4,319.4,0.00,19.1,23.6,"18:20:08",1
"22/09/27","18:40",0.0,20.3,92.4,1007.1,260.8,0.7,1.6,218.8,0.00,19.1,23.6,"18:30:02",1
"22/09/27","18:50",0.0,20.3,92.6,1007.4,186.0,1.2,3.2,235.3,0.00,19.1,23.7,"18:40:16",1
"22/09/27","19:00",0.0,20.3,92.8,1007.6,358.1,1.3,2.7,330.4,0.00,19.1,23.6,"18:59:52",1
"22/09/27","19:10",0.0,20.3,92.9,1007.8,314.8,1.3,2.5,327.3,0.00,19.2,23.4,"19:02:48",1
"22/09/27","19:20",0.0,20.3,93.1,1007.6,282.2,0.8,1.3,291.5,0.00,19.2,23.5,"19:11:52",1
"22/09/27","19:30",0.0,20.2,93.3,1008.1,322.7,1.5,2.9,331.6,0.00,19.1,23.3,"19:24:08",1
"22/09/27","19:40",0.0,20.2,93.4,1007.6,328.2,1.2,1.9,342.3,0.00,19.1,23.3,"19:34:00",1
"22/09/27","19:50",0.0,20.1,93.5,1008.3,329.9,1.0,1.7,354.8,0.00,19.1,23.5,"19:41:36",1
"22/09/27","20:00",0.0,20.0,93.7,1008.3,330.3,0.7,1.2,333.6,0.00,19.0,23.3,"19:57:04",1
"22/09/27","20:10",0.0,20.1,93.8,1008.1,334.7,1.1,1.8,338.3,0.00,19.1,23.5,"20:08:56",1
"22/09/27","20:20",0.0,20.1,94.0,1008.3,304.6,1.1,2.4,319.1,0.00,19.1,23.3,"20:17:44",1
"22/09/27","20:30",0.0,20.0,94.1,1008.1,291.6,1.0,2.0,304.5,0.00,19.1,23.3,"20:29:20",1
"22/09/27","20:40",0.0,20.0,94.2,1008.1,312.8,1.3,2.1,321.3,0.00,19.1,23.2,"20:35:36",1
"22/09/27","20:50",0.0,20.0,94.3,1008.1,324.5,1.2,2.1,350.1,0.00,19.1,23.3,"20:43:12",1
"22/09/27","21:00",0.0,19.9,94.5,1007.8,315.3,1.6,3.3,335.1,0.00,19.0,23.2,"20:58:00",1
"22/09/27","21:10",0.0,19.9,94.6,1007.8,332.4,1.8,3.5,342.5,0.00,19.0,23.1,"21:06:24",1
"22/09/27","21:20",0.0,19.7,94.6,1007.8,332.4,2.2,4.2,347.9,0.00,18.8,23.2,"21:12:24",1
"22/09/27","21:30",0.0,19.7,94.6,1007.4,319.3,1.7,4.5,345.7,0.00,18.8,23.2,"21:21:44",1
"22/09/27","21:40",0.0,19.7,94.7,1007.8,289.4,1.2,2.5,330.7,0.00,18.9,23.3,"21:34:08",1
"22/09/27","21:50",0.0,19.7,94.7,1007.6,317.9,1.5,2.6,319.9,0.00,18.9,23.3,"21:45:36",1
"22/09/27","22:00",0.0,19.7,94.7,1007.6,309.5,1.5,2.8,326.5,0.00,18.9,23.2,"21:54:24",1
"22/09/27","22:10",0.0,19.7,94.6,1007.8,326.0,1.7,2.8,345.9,0.00,18.8,23.1,"22:04:48",1
"22/09/27","22:20",0.0,19.7,94.6,1007.6,334.1,1.6,2.5,318.0,0.00,18.8,23.0,"22:13:12",1
"22/09/27","22:30",0.0,19.7,94.6,1007.6,340.9,1.6,3.2,334.1,0.00,18.8,23.2,"22:20:02",1
"22/09/27","22:40",0.0,19.7,94.6,1007.1,336.8,1.8,3.1,344.4,0.00,18.8,23.2,"22:38:16",1
"22/09/27","22:50",0.0,19.6,94.6,1007.4,306.8,1.6,2.9,331.0,0.00,18.7,23.0,"22:45:36",1
"22/09/27","23:00",0.0,19.6,94.6,1007.6,322.6,1.8,4.0,334.7,0.00,18.7,23.2,"22:57:12",1
"22/09/27","23:10",0.0,19.6,94.6,1007.4,327.3,2.0,3.2,348.0,0.00,18.7,23.0,"23:02:16",1
"22/09/27","23:20",0.0,19.6,94.6,1007.1,313.3,1.7,2.7,326.5,0.00,18.7,22.9,"23:11:44",1
"22/09/27","23:30",0.0,19.5,94.6,1007.4,314.9,1.8,3.2,338.4,0.00,18.7,23.2,"23:22:48",1
"22/09/27","23:40",0.0,19.5,94.6,1007.1,321.3,1.7,2.8,312.8,0.00,18.7,23.0,"23:36:56",1
"22/09/27","23:50",0.0,19.5,94.7,1006.9,327.5,1.8,3.3,326.3,0.00,18.7,22.9,"23:40:08",1
"22/09/27","24:00",0.0,19.5,94.7,1007.4,322.3,1.7,2.8,327.0,0.00,18.7,23.0,"23:56:24",1
